| time (UTC) | temp F | wind direction | speed knots | gust knots | rain 1hr in | rain 24hr in | rain mn in | humidity % | barometer mb |
| 20260902164347 | 72 | 282 | 2.6 | 7.8 | 0.00 | 0.00 | 0.00 | 86 | 1011.5 |
| 20260902163846 | 72 | 272 | 3.5 | 8.7 | 0.00 | 0.00 | 0.00 | 87 | 1011.7 |
| 20260902163351 | 72 | 293 | 4.3 | 8.7 | 0.00 | 0.00 | 0.00 | 87 | 1011.8 |
| 20260902162847 | 72 | 262 | 4.3 | 8.7 | 0.00 | 0.00 | 0.00 | 88 | 1011.8 |
| 20260902162617 | 72 | 267 | 3.5 | 8.7 | 0.00 | 0.00 | 0.00 | 88 | 1011.7 |
| 20260902161844 | 72 | 267 | 3.5 | 6.1 | 0.00 | 0.00 | 0.00 | 88 | 1011.5 |
| 20260902161346 | 71 | 250 | 3.5 | 5.2 | 0.00 | 0.00 | 0.00 | 89 | 1011.6 |
| 20260902160843 | 71 | 258 | 1.7 | 4.3 | 0.00 | 0.00 | 0.00 | 89 | 1011.5 |
| 20260902160343 | 71 | 317 | 0.9 | 5.2 | 0.00 | 0.00 | 0.00 | 90 | 1011.6 |
| 20260902155845 | 72 | 358 | 0.0 | 5.2 | 0.00 | 0.00 | 0.00 | 89 | 1011.8 |
| 20260902155341 | 72 | 307 | 0.9 | 5.2 | 0.00 | 0.00 | 0.00 | 89 | 1011.9 |
| 20260902154839 | 72 | 289 | 1.7 | 5.2 | 0.00 | 0.00 | 0.00 | 90 | 1011.5 |
| 20260902154337 | 71 | 336 | 1.7 | 5.2 | 0.00 | 0.00 | 0.00 | 93 | 1011.5 |
| 20260902153837 | 71 | 255 | 0.0 | 0.9 | 0.00 | 0.00 | 0.00 | 93 | 1011.4 |
| 20260902153334 | 71 | 12 | 0.0 | 0.0 | 0.00 | 0.00 | 0.00 | 94 | 1011.3 |
| 20260902152835 | 70 | 12 | 0.0 | 0.9 | 0.00 | 0.00 | 0.00 | 94 | 1011.1 |
| 20260902152334 | 70 | 12 | 0.0 | 1.7 | 0.00 | 0.00 | 0.00 | 94 | 1010.9 |
| 20260902151834 | 70 | 34 | 0.0 | 1.7 | 0.00 | 0.00 | 0.00 | 93 | 1010.8 |
| 20260902151334 | 70 | 300 | 0.9 | 2.6 | 0.00 | 0.00 | 0.00 | 93 | 1010.9 |
| 20260902150834 | 70 | 62 | 1.7 | 2.6 | 0.00 | 0.00 | 0.00 | 92 | 1010.7 |
| 20260902150559 | 70 | 41 | 0.0 | 1.7 | 0.00 | 0.00 | 0.00 | 91 | 1010.8 |
| 20260902150057 | 71 | 309 | 0.0 | 2.6 | 0.00 | 0.00 | 0.00 | 91 | 1010.8 |
| 20260902145331 | 71 | 61 | 1.7 | 2.6 | 0.00 | 0.00 | 0.00 | 91 | 1010.2 |
| 20260902144832 | 71 | 42 | 0.9 | 1.7 | 0.00 | 0.00 | 0.00 | 91 | 1009.9 |
| 20260902144331 | 71 | 92 | 0.0 | 1.7 | 0.00 | 0.00 | 0.00 | 91 | 1009.6 |
| 20260902143831 | 71 | 92 | 0.0 | 2.6 | 0.00 | 0.00 | 0.00 | 92 | 1009.5 |
| 20260902143331 | 71 | 90 | 0.9 | 2.6 | 0.00 | 0.00 | 0.00 | 92 | 1009.2 |
| 20260902142832 | 71 | 110 | 0.9 | 2.6 | 0.00 | 0.00 | 0.00 | 91 | 1009.5 |
| 20260902142330 | 71 | 72 | 0.0 | 2.6 | 0.00 | 0.00 | 0.00 | 91 | 1010.0 |
| 20260902141832 | 71 | 19 | 0.0 | 3.5 | 0.00 | 0.00 | 0.00 | 92 | 1010.9 |
| 20260902140830 | 71 | 290 | 0.0 | 4.3 | 0.00 | 0.00 | 0.00 | 93 | 1010.9 |
| 20260902140409 | 71 | 254 | 0.9 | 9.6 | 0.00 | 0.00 | 0.00 | 94 | 1010.9 |
| 20260902135332 | 71 | 274 | 3.5 | 11.3 | 0.00 | 0.00 | 0.00 | 96 | 1012.5 |
| 20260902134831 | 71 | 271 | 5.2 | 11.3 | 0.00 | 0.00 | 0.00 | 97 | 1012.8 |
| 20260902134331 | 71 | 251 | 6.1 | 12.2 | 0.00 | 0.00 | 0.00 | 97 | 1012.9 |
| 20260902133332 | 71 | 319 | 4.3 | 11.3 | 0.00 | 0.00 | 0.00 | 98 | 1012.8 |
| 20260902132832 | 71 | 326 | 5.2 | 10.4 | 0.00 | 0.00 | 0.00 | 98 | 1012.7 |
| 20260902132604 | 71 | 271 | 5.2 | 11.3 | 0.00 | 0.00 | 0.00 | 98 | 1012.4 |
| 20260902131831 | 71 | 290 | 5.2 | 11.3 | 0.00 | 0.00 | 0.00 | 98 | 1012.3 |
| 20260902131330 | 71 | 327 | 3.5 | 6.1 | 0.00 | 0.00 | 0.00 | 98 | 1012.1 |
| 20260902131106 | 71 | 275 | 3.5 | 7.8 | 0.00 | 0.00 | 0.00 | 98 | 1012.0 |
| 20260902130332 | 71 | 267 | 5.2 | 8.7 | 0.00 | 0.00 | 0.00 | 98 | 1012.0 |
| 20260902125831 | 70 | 281 | 2.6 | 8.7 | 0.00 | 0.00 | 0.00 | 98 | 1011.8 |
| 20260902125558 | 69 | 269 | 1.7 | 4.3 | 0.00 | 0.00 | 0.00 | 98 | 1011.7 |
| 20260902125104 | 68 | 278 | 0.9 | 1.7 | 0.00 | 0.00 | 0.00 | 98 | 1011.6 |
| 20260902124332 | 68 | 312 | 0.0 | 0.9 | 0.00 | 0.00 | 0.00 | 98 | 1011.5 |
| 20260902123834 | 68 | 312 | 0.0 | 1.7 | 0.00 | 0.00 | 0.00 | 98 | 1011.3 |
| 20260902123557 | 69 | 27 | 0.9 | 1.7 | 0.00 | 0.00 | 0.00 | 98 | 1011.2 |
| 20260902122827 | 69 | 34 | 0.0 | 1.7 | 0.00 | 0.00 | 0.00 | 98 | 1011.2 |
| 20260902122327 | 69 | 52 | 0.9 | 1.7 | 0.00 | 0.00 | 0.00 | 98 | 1011.3 |
| 20260902121827 | 69 | 290 | 0.0 | 0.9 | 0.00 | 0.00 | 0.00 | 98 | 1011.3 |
| 20260902120827 | 68 | 316 | 0.0 | 0.0 | 0.00 | 0.00 | 0.00 | 98 | 1011.1 |
| 20260902120328 | 68 | 316 | 0.0 | 0.9 | 0.00 | 0.00 | 0.00 | 98 | 1010.9 |
| 20260902115827 | 68 | 316 | 0.0 | 2.6 | 0.00 | 0.00 | 0.00 | 98 | 1010.8 |
| 20260902115324 | 68 | 324 | 0.0 | 2.6 | 0.00 | 0.00 | 0.00 | 98 | 1010.6 |
| 20260902115054 | 68 | 306 | 0.0 | 2.6 | 0.00 | 0.00 | 0.00 | 97 | 1010.7 |
| 20260902113824 | 69 | 19 | 0.0 | 1.7 | 0.00 | 0.00 | 0.00 | 98 | 1010.6 |
| 20260902113325 | 69 | 19 | 0.0 | 0.9 | 0.00 | 0.00 | 0.00 | 97 | 1010.5 |
| 20260902112824 | 69 | 345 | 0.0 | 0.0 | 0.00 | 0.00 | 0.00 | 97 | 1010.5 |
| 20260902112324 | 69 | 345 | 0.0 | 0.0 | 0.00 | 0.00 | 0.00 | 97 | 1010.4 |
| 20260902111824 | 69 | 345 | 0.0 | 0.0 | 0.00 | 0.00 | 0.00 | 97 | 1010.4 |
| 20260902111323 | 70 | 345 | 0.0 | 0.0 | 0.00 | 0.00 | 0.00 | 98 | 1010.3 |
| 20260902110822 | 70 | 345 | 0.0 | 0.0 | 0.00 | 0.00 | 0.00 | 98 | 1010.3 |
| 20260902110319 | 70 | 345 | 0.0 | 0.0 | 0.00 | 0.00 | 0.00 | 98 | 1010.3 |
| 20260902105821 | 70 | 309 | 0.0 | 0.9 | 0.00 | 0.00 | 0.00 | 98 | 1010.4 |
| 20260902105321 | 71 | 309 | 0.0 | 1.7 | 0.00 | 0.00 | 0.00 | 98 | 1010.4 |
| 20260902104818 | 71 | 274 | 0.0 | 2.6 | 0.00 | 0.00 | 0.00 | 98 | 1010.6 |
| 20260902104318 | 71 | 265 | 0.0 | 2.6 | 0.00 | 0.00 | 0.00 | 98 | 1010.6 |
| 20260902104050 | 71 | 299 | 0.0 | 2.6 | 0.00 | 0.00 | 0.00 | 98 | 1010.4 |
| 20260902103319 | 71 | 320 | 0.0 | 2.6 | 0.00 | 0.00 | 0.00 | 98 | 1010.5 |
| 20260902102815 | 71 | 312 | 0.0 | 2.6 | 0.00 | 0.00 | 0.00 | 98 | 1010.5 |
| 20260902102540 | 71 | 293 | 0.9 | 4.3 | 0.00 | 0.00 | 0.00 | 98 | 1010.5 |
| 20260902101814 | 71 | 300 | 0.9 | 4.3 | 0.00 | 0.00 | 0.00 | 98 | 1010.5 |
| 20260902101316 | 71 | 309 | 0.0 | 4.3 | 0.00 | 0.00 | 0.00 | 98 | 1010.4 |
| 20260902100814 | 71 | 306 | 0.0 | 3.5 | 0.00 | 0.00 | 0.00 | 98 | 1010.4 |
| 20260902100313 | 71 | 343 | 0.9 | 3.5 | 0.00 | 0.00 | 0.00 | 98 | 1010.4 |
| 20260902095814 | 71 | 269 | 0.9 | 2.6 | 0.00 | 0.00 | 0.00 | 98 | 1010.4 |
| 20260902095308 | 70 | 267 | 0.9 | 3.5 | 0.00 | 0.00 | 0.00 | 97 | 1010.3 |
| 20260902095037 | 70 | 265 | 0.9 | 3.5 | 0.00 | 0.00 | 0.00 | 97 | 1010.3 |
| 20260902094307 | 70 | 279 | 2.6 | 4.3 | 0.00 | 0.00 | 0.00 | 97 | 1010.4 |
| 20260902093809 | 70 | 289 | 2.6 | 4.3 | 0.00 | 0.00 | 0.00 | 98 | 1010.3 |
| 20260902093532 | 70 | 257 | 1.7 | 3.5 | 0.00 | 0.00 | 0.00 | 97 | 1010.1 |
| 20260902092804 | 69 | 265 | 1.7 | 3.5 | 0.00 | 0.00 | 0.00 | 97 | 1010.2 |
| 20260902092305 | 69 | 250 | 1.7 | 2.6 | 0.00 | 0.00 | 0.00 | 97 | 1010.1 |
| 20260902091804 | 69 | 258 | 0.9 | 2.6 | 0.00 | 0.00 | 0.00 | 97 | 1010.1 |
| 20260902091304 | 69 | 259 | 1.7 | 2.6 | 0.00 | 0.00 | 0.00 | 97 | 1010.2 |
| 20260902090804 | 69 | 259 | 0.9 | 2.6 | 0.00 | 0.00 | 0.00 | 97 | 1010.2 |
| 20260902090305 | 69 | 261 | 1.7 | 2.6 | 0.00 | 0.00 | 0.00 | 97 | 1010.0 |
| 20260902085804 | 69 | 261 | 1.7 | 2.6 | 0.00 | 0.00 | 0.00 | 97 | 1010.1 |
| 20260902085308 | 69 | 230 | 0.9 | 0.9 | 0.00 | 0.00 | 0.00 | 97 | 1010.1 |
| 20260902084803 | 69 | 231 | 0.0 | 0.0 | 0.00 | 0.00 | 0.00 | 97 | 1010.1 |
| 20260902084301 | 69 | 353 | 0.0 | 0.0 | 0.00 | 0.00 | 0.00 | 97 | 1010.1 |
| 20260902084028 | 69 | 353 | 0.0 | 0.0 | 0.00 | 0.00 | 0.00 | 97 | 1010.0 |
| 20260902083528 | 70 | 310 | 0.0 | 1.7 | 0.00 | 0.00 | 0.00 | 97 | 1010.1 |
| 20260902083034 | 70 | 310 | 0.0 | 1.7 | 0.00 | 0.00 | 0.00 | 97 | 1010.0 |
| 20260902082259 | 69 | 313 | 0.0 | 0.9 | 0.00 | 0.00 | 0.00 | 97 | 1010.1 |
| 20260902081757 | 69 | 310 | 0.0 | 1.7 | 0.00 | 0.00 | 0.00 | 97 | 1010.0 |
| 20260902081258 | 69 | 309 | 0.0 | 1.7 | 0.00 | 0.00 | 0.00 | 97 | 1010.1 |
| 20260902080757 | 69 | 25 | 0.0 | 2.6 | 0.00 | 0.00 | 0.00 | 96 | 1010.1 |
| 20260902080523 | 69 | 27 | 1.7 | 2.6 | 0.00 | 0.00 | 0.00 | 96 | 1010.1 |
| 20260902075756 | 69 | 316 | 0.0 | 0.0 | 0.00 | 0.00 | 0.00 | 96 | 1010.0 |
| 20260902075255 | 70 | 27 | 0.0 | 0.0 | 0.00 | 0.00 | 0.00 | 96 | 1009.9 |
| 20260902074754 | 70 | 27 | 0.0 | 0.0 | 0.00 | 0.00 | 0.00 | 96 | 1009.9 |
| 20260902074255 | 70 | 25 | 0.0 | 0.0 | 0.00 | 0.00 | 0.00 | 96 | 1009.9 |
| 20260902073754 | 70 | 25 | 0.0 | 2.6 | 0.00 | 0.00 | 0.00 | 96 | 1010.0 |
| 20260902073254 | 71 | 25 | 1.7 | 2.6 | 0.00 | 0.00 | 0.00 | 96 | 1010.0 |
| 20260902072752 | 71 | 15 | 0.0 | 1.7 | 0.00 | 0.00 | 0.00 | 96 | 1010.0 |
| 20260902072253 | 71 | 15 | 0.0 | 4.3 | 0.00 | 0.00 | 0.00 | 96 | 1010.1 |
| 20260902071753 | 71 | 329 | 0.9 | 6.1 | 0.00 | 0.00 | 0.00 | 96 | 1010.0 |
| 20260902071253 | 71 | 254 | 4.3 | 6.1 | 0.00 | 0.00 | 0.00 | 96 | 1009.9 |
| 20260902070748 | 71 | 262 | 3.5 | 5.2 | 0.00 | 0.00 | 0.00 | 96 | 1009.9 |
| 20260902070248 | 71 | 261 | 3.5 | 8.7 | 0.00 | 0.00 | 0.00 | 96 | 1009.7 |
| 20260902065748 | 71 | 268 | 3.5 | 8.7 | 0.00 | 0.00 | 0.00 | 96 | 1009.6 |
| 20260902065516 | 71 | 255 | 3.5 | 6.1 | 0.00 | 0.00 | 0.00 | 96 | 1009.5 |
| 20260902064747 | 71 | 255 | 3.5 | 4.3 | 0.00 | 0.00 | 0.00 | 96 | 1009.5 |
| 20260902064246 | 71 | 259 | 2.6 | 4.3 | 0.00 | 0.00 | 0.00 | 96 | 1009.4 |
| 20260902063745 | 71 | 254 | 2.6 | 4.3 | 0.00 | 0.00 | 0.00 | 96 | 1009.4 |
| 20260902063244 | 71 | 247 | 2.6 | 4.3 | 0.00 | 0.00 | 0.00 | 96 | 1009.4 |
| 20260902063016 | 70 | 227 | 2.6 | 4.3 | 0.00 | 0.00 | 0.00 | 96 | 1009.2 |
| 20260902061743 | 70 | 223 | 3.5 | 6.1 | 0.00 | 0.00 | 0.00 | 96 | 1009.4 |
| 20260902061242 | 70 | 233 | 1.7 | 5.2 | 0.00 | 0.00 | 0.00 | 96 | 1009.4 |
| 20260902060742 | 70 | 216 | 1.7 | 5.2 | 0.00 | 0.00 | 0.00 | 96 | 1009.6 |
| 20260902060244 | 70 | 244 | 2.6 | 5.2 | 0.00 | 0.00 | 0.00 | 96 | 1009.7 |
| 20260902055740 | 70 | 250 | 2.6 | 4.3 | 0.00 | 0.00 | 0.00 | 96 | 1009.7 |
| 20260902055238 | 70 | 221 | 1.7 | 4.3 | 0.00 | 0.00 | 0.00 | 95 | 1009.7 |
| 20260902054739 | 70 | 241 | 1.7 | 4.3 | 0.00 | 0.00 | 0.00 | 95 | 1009.7 |
| 20260902054240 | 70 | 216 | 1.7 | 4.3 | 0.00 | 0.00 | 0.00 | 95 | 1009.8 |
| 20260902053239 | 71 | 209 | 1.7 | 3.5 | 0.00 | 0.00 | 0.00 | 95 | 1009.8 |
| 20260902052738 | 71 | 219 | 1.7 | 4.3 | 0.00 | 0.00 | 0.00 | 95 | 1009.8 |
| 20260902052237 | 71 | 221 | 1.7 | 4.3 | 0.00 | 0.00 | 0.00 | 95 | 1009.9 |
| 20260902051734 | 71 | 221 | 1.7 | 4.3 | 0.00 | 0.00 | 0.00 | 94 | 1010.0 |
| 20260902051234 | 71 | 236 | 2.6 | 4.3 | 0.00 | 0.00 | 0.00 | 94 | 1010.1 |
| 20260902050734 | 71 | 221 | 1.7 | 5.2 | 0.00 | 0.00 | 0.00 | 94 | 1010.2 |
| 20260902050233 | 71 | 226 | 2.6 | 5.2 | 0.00 | 0.00 | 0.00 | 94 | 1010.2 |
| 20260902045731 | 71 | 217 | 1.7 | 5.2 | 0.00 | 0.00 | 0.00 | 94 | 1010.2 |
| 20260902045231 | 71 | 237 | 1.7 | 4.3 | 0.00 | 0.00 | 0.00 | 94 | 1010.2 |
| 20260902044734 | 71 | 230 | 2.6 | 4.3 | 0.00 | 0.00 | 0.00 | 93 | 1010.2 |
| 20260902044231 | 71 | 223 | 1.7 | 4.3 | 0.00 | 0.00 | 0.00 | 93 | 1010.2 |
| 20260902043731 | 71 | 252 | 2.6 | 4.3 | 0.00 | 0.00 | 0.00 | 93 | 1010.3 |
| 20260902043231 | 71 | 238 | 1.7 | 4.3 | 0.00 | 0.00 | 0.00 | 92 | 1010.1 |
| 20260902042231 | 71 | 254 | 2.6 | 6.1 | 0.00 | 0.00 | 0.00 | 92 | 1010.3 |
| 20260902041731 | 71 | 276 | 4.3 | 6.1 | 0.00 | 0.00 | 0.00 | 92 | 1010.3 |
| 20260902041231 | 71 | 248 | 3.5 | 6.1 | 0.00 | 0.00 | 0.00 | 92 | 1010.3 |
| 20260902040732 | 71 | 251 | 2.6 | 6.1 | 0.00 | 0.00 | 0.00 | 92 | 1010.3 |
| 20260902040234 | 71 | 245 | 3.5 | 7.8 | 0.00 | 0.00 | 0.00 | 92 | 1010.2 |
| 20260902035731 | 71 | 245 | 3.5 | 7.8 | 0.00 | 0.00 | 0.00 | 92 | 1010.2 |
| 20260902035505 | 71 | 254 | 2.6 | 8.7 | 0.00 | 0.00 | 0.00 | 92 | 1010.3 |
| 20260902034956 | 71 | 202 | 2.6 | 8.7 | 0.00 | 0.00 | 0.00 | 92 | 1010.3 |
| 20260902034508 | 71 | 233 | 2.6 | 6.1 | 0.00 | 0.00 | 0.00 | 93 | 1010.3 |
| 20260902033732 | 71 | 255 | 2.6 | 6.1 | 0.00 | 0.00 | 0.00 | 93 | 1010.2 |
| 20260902033231 | 71 | 231 | 2.6 | 6.1 | 0.00 | 0.00 | 0.00 | 93 | 1010.3 |
| 20260902032959 | 71 | 224 | 1.7 | 6.1 | 0.00 | 0.00 | 0.00 | 94 | 1010.2 |
| 20260902032234 | 71 | 214 | 3.5 | 6.1 | 0.00 | 0.00 | 0.00 | 94 | 1010.3 |
| 20260902031731 | 71 | 209 | 2.6 | 5.2 | 0.00 | 0.00 | 0.00 | 94 | 1010.3 |
| 20260902031230 | 71 | 247 | 2.6 | 7.8 | 0.00 | 0.00 | 0.00 | 94 | 1010.2 |
| 20260902030731 | 71 | 265 | 3.5 | 7.8 | 0.00 | 0.00 | 0.00 | 94 | 1010.2 |
| 20260902030231 | 71 | 254 | 3.5 | 5.2 | 0.00 | 0.00 | 0.00 | 94 | 1010.3 |
| 20260902025732 | 71 | 279 | 3.5 | 5.2 | 0.00 | 0.00 | 0.00 | 94 | 1010.4 |
| 20260902025231 | 71 | 257 | 3.5 | 5.2 | 0.00 | 0.00 | 0.00 | 94 | 1010.5 |
| 20260902024731 | 71 | 231 | 2.6 | 6.1 | 0.00 | 0.00 | 0.00 | 94 | 1010.3 |
| 20260902024231 | 71 | 250 | 3.5 | 8.7 | 0.00 | 0.00 | 0.00 | 94 | 1010.4 |
| 20260902023731 | 71 | 241 | 3.5 | 8.7 | 0.00 | 0.00 | 0.00 | 94 | 1010.3 |
| 20260902023232 | 71 | 210 | 4.3 | 8.7 | 0.00 | 0.00 | 0.00 | 94 | 1010.2 |
| 20260902022731 | 71 | 265 | 3.5 | 6.1 | 0.00 | 0.00 | 0.00 | 94 | 1010.3 |
| 20260902022230 | 71 | 158 | 2.6 | 8.7 | 0.00 | 0.00 | 0.00 | 94 | 1010.2 |
| 20260902021731 | 71 | 234 | 2.6 | 8.7 | 0.00 | 0.00 | 0.00 | 93 | 1010.3 |
| 20260902021231 | 71 | 175 | 2.6 | 8.7 | 0.00 | 0.00 | 0.00 | 93 | 1010.3 |
| 20260902020731 | 72 | 179 | 3.5 | 8.7 | 0.00 | 0.00 | 0.00 | 93 | 1010.4 |
| 20260902020231 | 72 | 214 | 2.6 | 5.2 | 0.00 | 0.00 | 0.00 | 93 | 1010.5 |
| 20260902015731 | 72 | 109 | 0.9 | 5.2 | 0.00 | 0.00 | 0.00 | 93 | 1010.5 |
| 20260902015232 | 72 | 183 | 1.7 | 6.1 | 0.00 | 0.00 | 0.00 | 92 | 1010.4 |
| 20260902014731 | 72 | 148 | 1.7 | 6.1 | 0.00 | 0.00 | 0.00 | 93 | 1010.3 |
| 20260902014231 | 72 | 157 | 3.5 | 6.1 | 0.00 | 0.00 | 0.00 | 93 | 1010.4 |
| 20260902013731 | 72 | 172 | 2.6 | 6.1 | 0.00 | 0.00 | 0.00 | 93 | 1010.5 |
| 20260902013459 | 72 | 193 | 2.6 | 5.2 | 0.00 | 0.00 | 0.00 | 92 | 1010.4 |
| 20260902012726 | 72 | 183 | 1.7 | 5.2 | 0.00 | 0.00 | 0.00 | 92 | 1010.3 |
| 20260902012226 | 72 | 162 | 0.9 | 3.5 | 0.00 | 0.00 | 0.00 | 92 | 1010.3 |
| 20260902011955 | 73 | 175 | 0.0 | 2.6 | 0.00 | 0.00 | 0.00 | 91 | 1010.3 |
| 20260902011450 | 73 | 111 | 0.0 | 2.6 | 0.00 | 0.00 | 0.00 | 91 | 1010.2 |
| 20260902010726 | 73 | 179 | 0.0 | 4.3 | 0.00 | 0.00 | 0.00 | 91 | 1010.2 |
| 20260902010228 | 73 | 186 | 1.7 | 4.3 | 0.00 | 0.00 | 0.00 | 91 | 1010.1 |
| 20260902005720 | 73 | 157 | 1.7 | 5.2 | 0.00 | 0.00 | 0.00 | 91 | 1010.0 |
| 20260902005455 | 73 | 206 | 1.7 | 5.2 | 0.00 | 0.00 | 0.00 | 91 | 1010.0 |
| 20260902004720 | 73 | 192 | 0.9 | 2.6 | 0.00 | 0.00 | 0.00 | 91 | 1010.1 |
| 20260902004220 | 74 | 178 | 0.9 | 3.5 | 0.00 | 0.00 | 0.00 | 91 | 1010.2 |
| 20260902003720 | 74 | 162 | 0.9 | 7.8 | 0.00 | 0.00 | 0.00 | 91 | 1010.3 |
| 20260902003220 | 74 | 96 | 1.7 | 7.8 | 0.00 | 0.00 | 0.00 | 91 | 1010.2 |
| 20260902002942 | 74 | 192 | 0.9 | 5.2 | 0.00 | 0.00 | 0.00 | 91 | 1010.2 |
| 20260902002218 | 74 | 151 | 1.7 | 5.2 | 0.00 | 0.00 | 0.00 | 92 | 1010.3 |
| 20260902001718 | 73 | 212 | 1.7 | 5.2 | 0.00 | 0.00 | 0.00 | 92 | 1010.4 |
| 20260902001217 | 73 | 121 | 1.7 | 8.7 | 0.00 | 0.00 | 0.00 | 93 | 1010.4 |
| 20260902000715 | 73 | 178 | 1.7 | 8.7 | 0.00 | 0.00 | 0.00 | 93 | 1010.4 |
| 20260902000213 | 72 | 195 | 3.5 | 5.2 | 0.00 | 0.00 | 0.00 | 93 | 1010.4 |
| 20260901235708 | 72 | 158 | 0.9 | 4.3 | 0.00 | 0.00 | 0.00 | 92 | 1010.4 |
| 20260901235208 | 72 | 80 | 0.0 | 2.6 | 0.00 | 0.00 | 0.00 | 92 | 1010.4 |
| 20260901234931 | 72 | 68 | 1.7 | 4.3 | 0.00 | 0.00 | 0.00 | 92 | 1010.5 |
| 20260901234207 | 72 | 58 | 2.6 | 4.3 | 0.00 | 0.00 | 0.00 | 91 | 1010.5 |
| 20260901233706 | 72 | 90 | 1.7 | 2.6 | 0.00 | 0.00 | 0.00 | 91 | 1010.5 |
| 20260901233207 | 72 | 55 | 1.7 | 2.6 | 0.00 | 0.00 | 0.00 | 91 | 1010.4 |
| 20260901232935 | 72 | 68 | 1.7 | 3.5 | 0.00 | 0.00 | 0.00 | 92 | 1010.4 |
| 20260901232208 | 72 | 62 | 1.7 | 3.5 | 0.00 | 0.00 | 0.00 | 92 | 1010.4 |
| 20260901231707 | 72 | 75 | 0.9 | 3.5 | 0.00 | 0.00 | 0.00 | 93 | 1010.4 |
| 20260901231210 | 71 | 59 | 1.7 | 4.3 | 0.00 | 0.00 | 0.00 | 93 | 1010.5 |
| 20260901230707 | 71 | 61 | 1.7 | 4.3 | 0.00 | 0.00 | 0.00 | 93 | 1010.6 |
| 20260901230209 | 71 | 82 | 1.7 | 3.5 | 0.00 | 0.00 | 0.00 | 93 | 1010.7 |
| 20260901225654 | 71 | 73 | 1.7 | 2.6 | 0.00 | 0.00 | 0.00 | 93 | 1010.8 |
| 20260901225427 | 70 | 69 | 0.0 | 2.6 | 0.00 | 0.00 | 0.00 | 93 | 1010.8 |
| 20260901224926 | 70 | 103 | 1.7 | 4.3 | 0.00 | 0.00 | 0.00 | 94 | 1010.9 |
| 20260901224154 | 70 | 76 | 2.6 | 4.3 | 0.00 | 0.00 | 0.00 | 94 | 1010.8 |
| 20260901223653 | 69 | 63 | 1.7 | 4.3 | 0.00 | 0.00 | 0.00 | 94 | 1010.8 |
| 20260901223152 | 69 | 87 | 1.7 | 6.1 | 0.00 | 0.00 | 0.00 | 94 | 1010.9 |
| 20260901222651 | 69 | 78 | 2.6 | 6.1 | 0.00 | 0.00 | 0.00 | 94 | 1011.0 |
| 20260901222419 | 69 | 73 | 3.5 | 6.1 | 0.00 | 0.00 | 0.00 | 94 | 1011.0 |
| 20260901221651 | 69 | 104 | 2.6 | 6.1 | 0.00 | 0.00 | 0.00 | 93 | 1011.0 |
| 20260901221150 | 69 | 89 | 4.3 | 9.6 | 0.00 | 0.00 | 0.00 | 93 | 1011.0 |
| 20260901220921 | 69 | 83 | 5.2 | 9.6 | 0.00 | 0.00 | 0.00 | 93 | 1011.1 |
| 20260901220150 | 69 | 116 | 3.5 | 8.7 | 0.00 | 0.00 | 0.00 | 93 | 1011.1 |
| 20260901215650 | 69 | 80 | 4.3 | 7.8 | 0.00 | 0.00 | 0.00 | 92 | 1011.1 |
| 20260901215418 | 69 | 97 | 4.3 | 7.8 | 0.00 | 0.00 | 0.00 | 92 | 1011.1 |
| 20260901214650 | 69 | 95 | 2.6 | 6.1 | 0.00 | 0.00 | 0.00 | 92 | 1011.1 |
| 20260901214416 | 69 | 76 | 4.3 | 6.1 | 0.00 | 0.00 | 0.00 | 92 | 1011.2 |
| 20260901213650 | 69 | 110 | 2.6 | 6.1 | 0.00 | 0.00 | 0.00 | 92 | 1011.2 |
| 20260901213149 | 69 | 97 | 3.5 | 8.7 | 0.00 | 0.00 | 0.00 | 92 | 1011.3 |
| 20260901212649 | 69 | 104 | 3.5 | 8.7 | 0.00 | 0.00 | 0.00 | 92 | 1011.3 |
| 20260901212149 | 69 | 90 | 4.3 | 7.8 | 0.00 | 0.00 | 0.00 | 92 | 1011.3 |
| 20260901211648 | 70 | 87 | 5.2 | 6.1 | 0.00 | 0.00 | 0.00 | 91 | 1011.3 |
| 20260901211416 | 70 | 86 | 3.5 | 6.1 | 0.00 | 0.00 | 0.00 | 91 | 1011.3 |
| 20260901210647 | 70 | 55 | 3.5 | 6.1 | 0.00 | 0.00 | 0.00 | 91 | 1011.5 |
| 20260901210152 | 70 | 85 | 3.5 | 6.1 | 0.00 | 0.00 | 0.00 | 92 | 1011.4 |
| 20260901205513 | 70 | 58 | 4.3 | 6.1 | 0.00 | 0.00 | 0.00 | 92 | 1011.4 |
| 20260901205012 | 70 | 78 | 3.5 | 6.1 | 0.00 | 0.00 | 0.00 | 93 | 1011.5 |
| 20260901204737 | 69 | 61 | 3.5 | 6.1 | 0.00 | 0.00 | 0.00 | 93 | 1011.4 |
| 20260901204008 | 69 | 103 | 1.7 | 7.8 | 0.00 | 0.00 | 0.00 | 93 | 1011.6 |
| 20260901203509 | 69 | 48 | 3.5 | 7.8 | 0.00 | 0.00 | 0.00 | 94 | 1011.6 |
| 20260901203008 | 69 | 100 | 2.6 | 6.1 | 0.00 | 0.00 | 0.00 | 94 | 1011.7 |
| 20260901202506 | 68 | 73 | 1.7 | 6.1 | 0.00 | 0.00 | 0.00 | 95 | 1011.7 |
| 20260901202004 | 68 | 154 | 3.5 | 6.1 | 0.00 | 0.00 | 0.00 | 94 | 1011.8 |
| 20260901201507 | 68 | 68 | 2.6 | 5.2 | 0.00 | 0.00 | 0.00 | 95 | 1011.9 |
| 20260901201002 | 68 | 109 | 4.3 | 5.2 | 0.00 | 0.00 | 0.00 | 94 | 1012.0 |
| 20260901200502 | 68 | 97 | 2.6 | 6.1 | 0.00 | 0.00 | 0.00 | 95 | 1012.1 |
| 20260901200255 | 68 | 83 | 2.6 | 6.1 | 0.00 | 0.00 | 0.00 | 94 | 1012.2 |
| 20260901195506 | 68 | 92 | 3.5 | 5.2 | 0.00 | 0.00 | 0.00 | 94 | 1012.2 |
| 20260901195042 | 68 | 75 | 2.6 | 5.2 | 0.00 | 0.00 | 0.00 | 94 | 1012.2 |
| 20260901194503 | 69 | 89 | 2.6 | 6.1 | 0.00 | 0.00 | 0.00 | 93 | 1012.3 |
| 20260901194000 | 69 | 62 | 3.5 | 6.1 | 0.00 | 0.00 | 0.00 | 94 | 1012.2 |
| 20260901193500 | 69 | 65 | 2.6 | 6.1 | 0.00 | 0.00 | 0.00 | 94 | 1012.1 |
| 20260901192958 | 69 | 54 | 4.3 | 6.1 | 0.00 | 0.00 | 0.00 | 93 | 1012.2 |
| 20260901192729 | 69 | 99 | 3.5 | 6.1 | 0.00 | 0.00 | 0.00 | 93 | 1012.1 |
| 20260901191954 | 69 | 95 | 2.6 | 6.1 | 0.00 | 0.00 | 0.00 | 93 | 1012.2 |
| 20260901191719 | 69 | 65 | 3.5 | 6.1 | 0.00 | 0.00 | 0.00 | 93 | 1012.3 |
| 20260901190951 | 69 | 107 | 5.2 | 6.1 | 0.00 | 0.00 | 0.00 | 93 | 1012.3 |
| 20260901190449 | 69 | 45 | 2.6 | 6.1 | 0.00 | 0.00 | 0.00 | 94 | 1012.4 |
| 20260901185950 | 69 | 35 | 1.7 | 6.1 | 0.00 | 0.00 | 0.00 | 93 | 1012.5 |
| 20260901185720 | 69 | 85 | 2.6 | 6.1 | 0.00 | 0.00 | 0.00 | 94 | 1012.5 |
| 20260901184950 | 69 | 62 | 3.5 | 5.2 | 0.00 | 0.00 | 0.00 | 93 | 1012.5 |
| 20260901184448 | 69 | 55 | 3.5 | 5.2 | 0.00 | 0.00 | 0.00 | 93 | 1012.5 |
| 20260901183949 | 69 | 52 | 1.7 | 4.3 | 0.00 | 0.00 | 0.00 | 93 | 1012.4 |
| 20260901183531 | 70 | 34 | 3.5 | 5.2 | 0.00 | 0.00 | 0.00 | 92 | 1012.4 |
| 20260901183027 | 70 | 14 | 1.7 | 5.2 | 0.00 | 0.00 | 0.00 | 93 | 1012.4 |
| 20260901182516 | 70 | 68 | 1.7 | 4.3 | 0.00 | 0.00 | 0.00 | 93 | 1012.5 |
| 20260901181949 | 70 | 75 | 1.7 | 5.2 | 0.00 | 0.00 | 0.00 | 93 | 1012.5 |
| 20260901181449 | 70 | 75 | 1.7 | 5.2 | 0.00 | 0.00 | 0.00 | 92 | 1012.4 |
| 20260901180947 | 70 | 220 | 0.9 | 5.2 | 0.00 | 0.00 | 0.00 | 93 | 1012.4 |
| 20260901180448 | 70 | 78 | 2.6 | 4.3 | 0.00 | 0.00 | 0.00 | 93 | 1012.4 |
| 20260901175946 | 70 | 18 | 1.7 | 6.1 | 0.00 | 0.00 | 0.00 | 92 | 1012.5 |
| 20260901175447 | 70 | 348 | 2.6 | 6.1 | 0.00 | 0.00 | 0.00 | 91 | 1012.4 |
| 20260901175215 | 71 | 93 | 1.7 | 5.2 | 0.00 | 0.00 | 0.00 | 92 | 1012.4 |
| 20260901174449 | 71 | 71 | 2.6 | 5.2 | 0.00 | 0.00 | 0.00 | 92 | 1012.3 |
| 20260901172946 | 70 | 72 | 1.7 | 4.3 | 0.00 | 0.00 | 0.00 | 91 | 1012.2 |
| 20260901172449 | 71 | 59 | 1.7 | 4.3 | 0.00 | 0.00 | 0.00 | 93 | 1012.0 |
| 20260901171946 | 70 | 62 | 3.5 | 6.1 | 0.00 | 0.00 | 0.00 | 93 | 1012.2 |
| 20260901171442 | 70 | 72 | 3.5 | 6.1 | 0.00 | 0.00 | 0.00 | 91 | 1012.2 |
| 20260901170939 | 70 | 76 | 4.3 | 6.1 | 0.00 | 0.00 | 0.00 | 90 | 1012.1 |
| 20260901170439 | 72 | 69 | 4.3 | 6.1 | 0.00 | 0.00 | 0.00 | 88 | 1012.0 |
| 20260901165939 | 74 | 52 | 1.7 | 4.3 | 0.00 | 0.00 | 0.00 | 90 | 1012.1 |
| 20260901165439 | 72 | 104 | 1.7 | 3.5 | 0.00 | 0.00 | 0.00 | 91 | 1012.0 |
| 20260901164941 | 71 | 86 | 1.7 | 3.5 | 0.00 | 0.00 | 0.00 | 93 | 1012.1 |